Regional Weather Roundup
Issued by NWS State College, PA

Home | Current Version | Previous Version | Graphics & Text | Print | Product List | Glossary Off
Versions: 1 2 3 4 5 6 7 8 9 10 11 12 13 14 15 16 17 18 19 20 21 22 23 24 25 26 27 28 29 30 31 32 33 34 35 36 37 38 39 40 41 42 43 44 45 46 47 48 49 50

000
ASUS41 KCTP 282010
RWRCTP

REGIONAL WEATHER ROUNDUP
NATIONAL WEATHER SERVICE STATE COLLEGE PA
300 PM EST SUN DEC 28 2014

Note: "fair" indicates few or no clouds below 12,000 feet with no
significant weather and/or obstructions to visibility.

* = STATION THAT DOES NOT REPORT PRECIPITATION /E.G. RAIN...SNOW...ETC/
    THUNDER OR FOG.

PAZ002>004-007>009-013>016-020>023-029>032-282100-
WESTERN PENNSYLVANIA

CITY           SKY/WX    TMP DP  RH WIND       PRES   REMARKS
ERIE           CLOUDY    37  26  64 W6        30.05R
MEADVILLE      CLOUDY    34  27  75 NW5       30.03R
FRANKLIN*      CLOUDY    34  28  80 NW7       30.04R
NEW CASTLE       N/A     36  32  85 NW5       30.07R
BEAVER COUNTY  NOT AVBL
BUTLER*        CLOUDY    37  32  81 W6        30.06R
PITTSBURGH INT CLOUDY    38  31  76 NW10      30.04R
PITTSBURGH     CLOUDY    36  31  82 NW5       30.03R
INDIANA*       CLOUDY    36  34  93 NW6       30.06
LATROBE        LGT RAIN  36  36 100 NW6       30.04R FOG
WASHINGTON CO* NOT AVBL
$$

PAZ004>006-010>012-017>019-024>028-033>037-041-042-045-046-049>053-282100-
CENTRAL PENNSYLVANIA

CITY           SKY/WX    TMP DP  RH WIND       PRES   REMARKS
BRADFORD       CLOUDY    32  26  78 NW13      29.96R
DUBOIS         CLOUDY    36  30  79 NW12      29.97R
CLEARFIELD     CLOUDY    38  29  70 W8G22     30.00R
JOHNSTOWN      CLOUDY    34  32  92 W12       29.96R FOG
ALTOONA        CLOUDY    40  35  83 NW7       29.98R
STATE COLLEGE  CLOUDY    39  32  75 NW9       29.98R
WILLIAMSPORT   CLOUDY    45  33  63 NW8       29.95R
SELINSGROVE    CLOUDY    48  37  65 W5        29.97R
FT INDIANTOWN  CLOUDY    50  40  67 W7        29.95R
CAPITAL CITY   CLOUDY    51  41  68 NW7       29.96R
HARRISBURG     CLOUDY    49  43  80 NW3       29.95R
YORK           CLOUDY    53  43  68 NW10      29.95R
$$

PAZ038>040-043-044-047-048-054-055-060>062-067>071-282100-
EASTERN PENNSYLVANIA

CITY           SKY/WX    TMP DP  RH WIND       PRES   REMARKS
SCRANTON       CLOUDY    43  34  70 N12G21    29.94R
MOUNT POCONO   CLOUDY    41  36  82 NW8       29.89R
ALLENTOWN      CLOUDY    51  40  65 W10       29.92R
QUAKERTOWN*    CLOUDY    50  43  76 NW8       29.94R
READING        CLOUDY    50  42  74 NW6       29.93R
LANCASTER      CLOUDY    48  43  82 W5        29.94R
COATESVILLE    CLOUDY    52  45  76 NW6       29.94R
POTTSTOWN      CLOUDY    52  42  69 NW8       29.94R
BLUE BELL      CLOUDY    54  43  66 W3        29.93R
DOYLESTOWN     CLOUDY    51  43  74 W5        29.92R
WILLOW GROVE   NOT AVBL
NORTH PHILA    CLOUDY    56  40  55 NW9       29.95R
PHILADELPHIA   CLOUDY    56  40  55 SW6       29.94R
$$



USA.gov is the U.S. government's official web portal to all federal, state and local government web resources and services.